This is the latest recevied weather packets stored in our database for station/object KW6V-15. If no packets are shown the sender has not sent any weather packets the latest 10 day(s).
| Time | Temp. | Humidity | Pressure | Rain* | Wind** | Luminosity | Snow |
|---|---|---|---|---|---|---|---|
| 1777492852 | 17.22° C | 72% | 1019.4 hPa | 0 mm | - | - | - |
| 1777491033 | 17.22° C | 71% | 1019.3 hPa | 0 mm | - | - | - |
| 1777489268 | 16.67° C | 72% | 1019.2 hPa | 0 mm | - | - | - |
| 1777487444 | 17.22° C | 73% | 1019.3 hPa | 0 mm | - | - | - |
| 1777485635 | 16.67° C | 73% | 1019.4 hPa | 0 mm | - | - | - |
| 1777483832 | 16.11° C | 78% | 1019.4 hPa | 0 mm | - | - | - |
| 1777482052 | 15° C | 81% | 1019.3 hPa | 0 mm | - | - | - |
| 1777480232 | 13.89° C | 89% | 1019.4 hPa | 0 mm | - | - | - |
| 1777478468 | 11.67° C | 93% | 1019.6 hPa | 0 mm | - | - | - |
| 1777476624 | 8.89° C | 93% | 1019.7 hPa | 0 mm | - | - | - |
| 1777474840 | 7.78° C | 93% | 1019.6 hPa | 0 mm | - | - | - |
| 1777473076 | 6.67° C | 93% | 1019.9 hPa | 0 mm | - | - | - |
| 1777471246 | 5.56° C | 93% | 1020 hPa | 0 mm | - | - | - |
| 1777469472 | 5.56° C | 93% | 1020.1 hPa | 0 mm | - | - | - |
| 1777467641 | 6.11° C | 93% | 1020 hPa | 0 mm | - | - | - |
| 1777465822 | 5° C | 92% | 1020 hPa | 0 mm | - | - | - |
| 1777464064 | 5° C | 92% | 1020.2 hPa | 0 mm | - | - | - |
| 1777462227 | 5° C | 92% | 1020.1 hPa | 0 mm | - | - | - |
| 1777460492 | 5° C | 92% | 1020.1 hPa | 0 mm | - | - | - |
| 1777458770 | 5° C | 92% | 1020 hPa | 0 mm | - | - | - |
| 1777456827 | 5.56° C | 92% | 1020.1 hPa | 0 mm | - | - | - |
| 1777455056 | 6.11° C | 91% | 1020.2 hPa | 0 mm | - | - | - |
| 1777451435 | 7.22° C | 91% | 1020.4 hPa | 0 mm | - | - | - |
| 1777449643 | 7.22° C | 91% | 1020.3 hPa | 0 mm | - | - | - |
| 1777447836 | 8.33° C | 92% | 1020.2 hPa | 0 mm | - | - | - |
* Rain latest hour (hover to see other rain measurements)
** Current wind speed in m/s (hover to see current wind gust speed)